Flag for Canada Weather past 2 weeks in Sault Ste. Marie, Ontario, Canada

Now
57 °F

Passing clouds.


Feels Like: 57 °F
Forecast: 56 / 71 °F
Wind: No wind

Location: Sault Ste Marie

Current Time: Sep 2, 2014 at 5:38:24 AM

Latest Report: Sep 2, 2014 at 5:00 AM


Visibility: 15 mi

Pressure: 29.74 "Hg

Humidity: 100%

Dew point: 57 °F

Location of Sault Ste. MarieLocation

Historic Weather in Sault Ste. Marie — Graph

°F

Sault Ste. Marie temperature yesterday

Maximum temperature yesterday: 72 °F (at 1:00 PM)
Minimum temperature yesterday: 57 °F (at 1:00 AM)
Average temperature yesterday: 64 °F

Past Weeks' High & Low Weather Summary

 TemperatureHumidityPressure
High79 °F (Aug 22, 3:00 PM)100% (Aug 18, 5:00 AM)30.21 "Hg (Aug 18, 5:00 AM)
Low43 °F (Aug 27, 11:00 PM)46% (Aug 28, 4:00 PM)29.59 "Hg (Sep 1, 5:00 PM)
Average62 °F90%29.96 "Hg
* Reported Aug 18 4:00 AM — Sep 2 4:00 AM, Sault Ste. Marie, Weather by CustomWeather, © 2014

Note: Actual official high and low records may vary slightly from our data, if they occured in-between our weather recording intervals... More about our weather records

Advertising

Sault Ste. Marie weather history for previous 24 hours

 ConditionsComfort  
Time TempWeatherWind HumidityBarometerVisibility
4:00 AM
Sep 2
63 °FFog.10 mph88%29.74 "Hg10 mi
3:00 AM61 °FFog.9 mph94%29.73 "Hg10 mi
2:00 AM61 °FFog.6 mph94%29.72 "Hg10 mi
1:00 AM61 °FFog.3 mph94%29.72 "Hg10 mi
12:00 AM57 °FFog.2 mph100%29.72 "Hg2 mi
11:45 PM
Sep 1
57 °FFog.No wind94%29.72 "Hg2 mi
11:00 PM61 °FPassing clouds.2 mph94%29.71 "Hg15 mi
10:00 PM61 °FPassing clouds.2 mph94%29.70 "Hg15 mi
9:00 PM64 °FRain showers. Fog.8 mph94%29.67 "Hg1 mi
8:00 PM66 °FScattered showers. Partly sunny.6 mph88%29.63 "Hg15 mi
7:00 PM68 °FBroken clouds.12 mph83%29.61 "Hg15 mi
6:00 PM70 °FScattered clouds.13 mph88%29.60 "Hg15 mi
5:00 PM70 °FBroken clouds.6 mph94%29.59 "Hg15 mi
4:00 PM68 °FSprinkles. Partly sunny.3 mph100%29.60 "Hg10 mi
3:04 PM68 °FStrong thunderstorms. Low clouds.18 mph88%29.67 "Hg1 mi
2:00 PM72 °FCloudy.14 mph83%29.63 "Hg15 mi
1:00 PM72 °FPartly sunny.8 mph83%29.67 "Hg12 mi
12:49 PM70 °FPartly sunny.10 mph88%29.68 "Hg12 mi
12:00 PM70 °FBroken clouds.9 mph83%29.71 "Hg15 mi
11:00 AM68 °FMostly cloudy.9 mph88%29.73 "Hg12 mi
10:00 AM64 °FMostly cloudy.10 mph94%29.75 "Hg12 mi
9:00 AM63 °FMostly cloudy.9 mph100%29.77 "Hg8 mi
8:00 AM63 °FFog.8 mph94%29.79 "Hg6 mi
7:00 AM63 °FPassing clouds.8 mph94%29.81 "Hg7 mi
6:00 AM61 °FFog.9 mph100%29.82 "Hg3 mi
5:00 AM61 °FFog.6 mph94%29.85 "Hg2 mi
Weather by CustomWeather, © 2014

See weather overviewHow to use our weather pages